VET972 KBHM-KHSV

Flight info

Callsign VET972
Flight time N/A
Altitude 7000
Route DCT
Aircraft BE58/L-VGD/C

Departure

Time 2026-04-28 23:34
Airport Birmingham-Shuttlesworth International Airport (KBHM)

Arrival

Time N/A
Airport Huntsville International Airport (KHSV)
Time Latitude Longitude Altitude Speed Heading
2026-04-28 23:22 33.56338 -86.74502 618 ft 0 kts 91°
2026-04-28 23:30 33.56339 -86.74498 591 ft 3 kts 56°
2026-04-28 23:30 33.56321 -86.74515 619 ft 8 kts 214°
2026-04-28 23:30 33.56315 -86.74549 616 ft 0 kts 278°
2026-04-28 23:31 33.56355 -86.74588 618 ft 15 kts 359°
2026-04-28 23:31 33.56486 -86.74589 620 ft 22 kts
2026-04-28 23:32 33.56665 -86.74589 627 ft 27 kts 359°
2026-04-28 23:32 33.56782 -86.74549 634 ft 19 kts 54°
2026-04-28 23:32 33.56873 -86.74391 630 ft 28 kts 55°
2026-04-28 23:32 33.56990 -86.74188 631 ft 25 kts 56°
2026-04-28 23:33 33.57097 -86.74000 634 ft 29 kts 54°
2026-04-28 23:33 33.57177 -86.73863 634 ft 9 kts 55°
2026-04-28 23:33 33.57250 -86.73846 633 ft 9 kts 326°
2026-04-28 23:33 33.57288 -86.73877 634 ft 14 kts 325°
2026-04-28 23:34 33.57271 -86.74054 634 ft 52 kts 235°
2026-04-28 23:34 33.56905 -86.74690 691 ft 122 kts 235°
2026-04-28 23:34 33.56418 -86.75597 1178 ft 130 kts 237°
2026-04-28 23:34 33.55998 -86.76517 1793 ft 123 kts 239°
2026-04-28 23:35 33.55694 -86.77481 2165 ft 125 kts 244°
2026-04-28 23:35 33.55465 -86.78481 2596 ft 122 kts 246°
2026-04-28 23:35 33.55157 -86.79408 2968 ft 122 kts 239°
2026-04-28 23:35 33.54750 -86.80314 3290 ft 123 kts 237°
2026-04-28 23:36 33.54318 -86.81180 3666 ft 122 kts 237°
2026-04-28 23:36 33.53905 -86.82068 4041 ft 122 kts 237°
2026-04-28 23:36 33.53472 -86.82950 4400 ft 124 kts 239°
2026-04-28 23:36 33.53035 -86.83861 4652 ft 127 kts 240°
2026-04-28 23:37 33.52618 -86.84804 4807 ft 128 kts 242°
2026-04-28 23:37 33.52224 -86.85749 4927 ft 128 kts 246°
2026-04-28 23:37 33.52116 -86.86856 4905 ft 141 kts 281°
2026-04-28 23:37 33.52769 -86.87737 4963 ft 156 kts 329°
2026-04-28 23:38 33.53886 -86.87760 4931 ft 174 kts 17°
2026-04-28 23:38 33.54872 -86.86853 4809 ft 184 kts 44°
2026-04-28 23:38 33.55754 -86.85750 4678 ft 183 kts 45°
2026-04-28 23:38 33.56631 -86.84656 4538 ft 181 kts 45°
2026-04-28 23:39 33.57506 -86.83570 4346 ft 182 kts 45°
2026-04-28 23:39 33.58394 -86.82478 4159 ft 183 kts 45°
2026-04-28 23:39 33.59290 -86.81390 3966 ft 184 kts 45°
2026-04-28 23:39 33.60195 -86.80308 3773 ft 184 kts 45°
2026-04-28 23:40 33.61108 -86.79227 3574 ft 185 kts 45°
2026-04-28 23:40 33.62023 -86.78149 3388 ft 183 kts 46°
2026-04-28 23:40 33.62652 -86.76869 3053 ft 176 kts 85°
2026-04-28 23:40 33.62475 -86.75537 2606 ft 156 kts 124°
2026-04-28 23:41 33.61975 -86.74410 2292 ft 151 kts 131°
2026-04-28 23:41 33.61288 -86.73506 1953 ft 140 kts 149°
2026-04-28 23:41 33.60537 -86.72855 1626 ft 130 kts 151°
2026-04-28 23:41 33.59783 -86.72347 1481 ft 118 kts 158°
2026-04-28 23:42 33.59090 -86.72105 1302 ft 97 kts 181°
2026-04-28 23:42 33.58410 -86.72435 1023 ft 112 kts 216°
2026-04-28 23:42 33.57849 -86.73079 828 ft 109 kts 233°
2026-04-28 23:42 33.57418 -86.73801 702 ft 105 kts 234°
2026-04-28 23:43 33.57038 -86.74459 628 ft 80 kts 235°
2026-04-28 23:43 33.56901 -86.74694 636 ft 39 kts 234°
2026-04-28 23:43 33.56707 -86.74852 636 ft 18 kts 180°
2026-04-28 23:43 33.56683 -86.74852 631 ft 0 kts 180°
2026-04-28 23:44 33.56682 -86.74852 631 ft 0 kts 180°
2026-04-28 23:44 33.56633 -86.74825 626 ft 5 kts 106°
2026-04-28 23:44 33.56633 -86.74824 626 ft 0 kts 98°
2026-04-28 23:45 33.56633 -86.74818 626 ft 6 kts 88°
2026-04-28 23:45 33.56695 -86.74702 632 ft 23 kts 54°
2026-04-28 23:45 33.56798 -86.74520 632 ft 29 kts 55°
2026-04-28 23:46 33.56926 -86.74299 633 ft 35 kts 55°
2026-04-28 23:46 33.57061 -86.74064 630 ft 36 kts 54°
2026-04-28 23:46 33.57182 -86.73858 632 ft 21 kts 49°
2026-04-28 23:46 33.57262 -86.73856 637 ft 3 kts 325°
2026-04-28 23:47 33.57262 -86.73857 633 ft 0 kts 324°
2026-04-28 23:57 33.57309 -86.73900 635 ft 21 kts 306°
2026-04-28 23:57 33.57137 -86.74291 638 ft 97 kts 235°
2026-04-28 23:57 33.56663 -86.75105 907 ft 131 kts 236°
2026-04-28 23:57 33.56137 -86.76018 1502 ft 133 kts 232°
2026-04-28 23:58 33.55636 -86.76935 2072 ft 131 kts 232°
2026-04-28 23:58 33.55156 -86.77887 2483 ft 133 kts 235°
2026-04-28 23:58 33.54726 -86.78893 2755 ft 138 kts 239°
2026-04-28 23:58 33.54310 -86.79925 3077 ft 137 kts 240°
2026-04-28 23:59 33.53871 -86.80949 3315 ft 140 kts 238°
2026-04-28 23:59 33.53391 -86.81959 3585 ft 138 kts 236°
2026-04-28 23:59 33.52887 -86.82920 3951 ft 136 kts 236°
2026-04-28 23:59 33.52399 -86.83903 4236 ft 138 kts 238°
2026-04-29 00:00 33.51897 -86.84890 4520 ft 140 kts 239°
2026-04-29 00:00 33.51394 -86.85909 4773 ft 144 kts 237°
2026-04-29 00:00 33.50860 -86.86933 5009 ft 146 kts 237°
2026-04-29 00:00 33.50310 -86.87968 5248 ft 148 kts 237°
2026-04-29 00:01 33.49765 -86.89023 5488 ft 149 kts 237°
2026-04-29 00:01 33.49211 -86.90084 5729 ft 151 kts 237°
2026-04-29 00:01 33.48875 -86.91263 5981 ft 156 kts 271°
2026-04-29 00:01 33.49397 -86.92403 6228 ft 166 kts 318°
2026-04-29 00:02 33.50519 -86.92806 6485 ft 176 kts 360°
2026-04-29 00:02 33.51738 -86.92582 6735 ft 178 kts
2026-04-29 00:02 33.52947 -86.92372 6976 ft 178 kts
2026-04-29 00:02 33.54211 -86.92200 7060 ft 189 kts
2026-04-29 00:03 33.55554 -86.92023 7070 ft 198 kts
2026-04-29 00:03 33.56918 -86.91840 7072 ft 196 kts
2026-04-29 00:03 33.58266 -86.91660 7071 ft 194 kts
2026-04-29 00:03 33.59604 -86.91483 7064 ft 193 kts
2026-04-29 00:04 33.60929 -86.91310 7064 ft 191 kts
2026-04-29 00:04 33.62250 -86.91133 7060 ft 191 kts
2026-04-29 00:04 33.63569 -86.90957 7058 ft 191 kts
2026-04-29 00:04 33.64886 -86.90782 7065 ft 191 kts
2026-04-29 00:05 33.66215 -86.90606 7049 ft 193 kts
2026-04-29 00:05 33.67547 -86.90432 7047 ft 193 kts
2026-04-29 00:05 33.68888 -86.90252 7045 ft 195 kts
2026-04-29 00:05 33.70235 -86.90072 7043 ft 195 kts
2026-04-29 00:06 33.71582 -86.89893 7040 ft 195 kts
2026-04-29 00:06 33.72936 -86.89713 7038 ft 196 kts
2026-04-29 00:06 33.74294 -86.89533 7035 ft 196 kts
2026-04-29 00:06 33.75647 -86.89351 6969 ft 196 kts
2026-04-29 00:07 33.77006 -86.89171 6967 ft 196 kts
2026-04-29 00:07 33.78361 -86.88992 6968 ft 196 kts
2026-04-29 00:07 33.79714 -86.88811 6967 ft 196 kts
2026-04-29 00:07 33.81066 -86.88631 6966 ft 195 kts
2026-04-29 00:08 33.82413 -86.88451 6966 ft 195 kts
2026-04-29 00:08 33.83761 -86.88271 6965 ft 195 kts
2026-04-29 00:08 33.85110 -86.88091 6965 ft 195 kts
2026-04-29 00:08 33.86456 -86.87911 6962 ft 195 kts
2026-04-29 00:09 33.87804 -86.87732 6962 ft 195 kts
2026-04-29 00:09 33.89152 -86.87552 6960 ft 195 kts
2026-04-29 00:09 33.90500 -86.87372 6960 ft 195 kts
2026-04-29 00:09 33.91846 -86.87192 6969 ft 195 kts
2026-04-29 00:10 33.93201 -86.87011 6972 ft 196 kts
2026-04-29 00:10 33.94552 -86.86830 6979 ft 196 kts
2026-04-29 00:10 33.95909 -86.86650 6984 ft 196 kts
2026-04-29 00:10 33.97265 -86.86468 6987 ft 196 kts
2026-04-29 00:11 33.98624 -86.86285 6991 ft 196 kts
2026-04-29 00:11 33.99979 -86.86103 6996 ft 196 kts
2026-04-29 00:11 34.02696 -86.85741 7007 ft 197 kts
2026-04-29 00:12 34.04056 -86.85559 7012 ft 197 kts
2026-04-29 00:12 34.05414 -86.85376 7018 ft 196 kts
2026-04-29 00:12 34.06776 -86.85194 7021 ft 197 kts
2026-04-29 00:12 34.08135 -86.85011 7026 ft 196 kts
2026-04-29 00:13 34.09492 -86.84830 7032 ft 197 kts
2026-04-29 00:13 34.10852 -86.84647 7037 ft 196 kts
2026-04-29 00:13 34.12208 -86.84465 7043 ft 196 kts
2026-04-29 00:13 34.13564 -86.84283 7046 ft 196 kts
2026-04-29 00:14 34.14922 -86.84101 7052 ft 196 kts
2026-04-29 00:14 34.16280 -86.83918 7057 ft 196 kts
2026-04-29 00:14 34.17636 -86.83736 7072 ft 197 kts
2026-04-29 00:14 34.19008 -86.83552 7061 ft 199 kts
2026-04-29 00:15 34.20390 -86.83367 7062 ft 200 kts
2026-04-29 00:15 34.21775 -86.83179 7063 ft 200 kts
2026-04-29 00:15 34.23163 -86.82992 7065 ft 201 kts
2026-04-29 00:15 34.24551 -86.82806 7066 ft 201 kts
2026-04-29 00:16 34.25941 -86.82618 7059 ft 201 kts
2026-04-29 00:16 34.27331 -86.82431 7057 ft 201 kts
2026-04-29 00:16 34.28718 -86.82244 7060 ft 201 kts
2026-04-29 00:16 34.30090 -86.82059 7058 ft 201 kts
2026-04-29 00:17 34.31478 -86.81872 7057 ft 201 kts
2026-04-29 00:17 34.32864 -86.81685 7058 ft 201 kts
2026-04-29 00:17 34.34248 -86.81498 7057 ft 199 kts
2026-04-29 00:17 34.35626 -86.81312 7055 ft 200 kts
2026-04-29 00:18 34.37006 -86.81126 7051 ft 200 kts
2026-04-29 00:18 34.38387 -86.80939 7043 ft 200 kts
2026-04-29 00:18 34.39768 -86.80756 7042 ft 200 kts
2026-04-29 00:18 34.41151 -86.80566 7036 ft 200 kts
2026-04-29 00:19 34.42534 -86.80376 7027 ft 200 kts
2026-04-29 00:19 34.43917 -86.80191 7030 ft 200 kts
2026-04-29 00:19 34.45298 -86.80005 7023 ft 200 kts
2026-04-29 00:19 34.46684 -86.79817 7010 ft 200 kts
2026-04-29 00:20 34.48067 -86.79630 7015 ft 200 kts
2026-04-29 00:20 34.49456 -86.79442 7019 ft 200 kts
2026-04-29 00:20 34.50834 -86.79254 7020 ft 194 kts
2026-04-29 00:20 34.52126 -86.79078 7009 ft 182 kts
2026-04-29 00:21 34.53355 -86.78913 7013 ft 174 kts
2026-04-29 00:21 34.54538 -86.78754 7016 ft 169 kts
2026-04-29 00:21 34.55698 -86.78597 7019 ft 166 kts
2026-04-29 00:21 34.56839 -86.78442 7020 ft 164 kts
2026-04-29 00:22 34.57973 -86.78289 7017 ft 164 kts
2026-04-29 00:22 34.59105 -86.78135 7018 ft 163 kts
2026-04-29 00:22 34.60231 -86.77982 7017 ft 163 kts
2026-04-29 00:22 34.61355 -86.77829 7019 ft 162 kts
2026-04-29 00:23 34.62473 -86.77678 7018 ft 162 kts
2026-04-29 00:23 34.63595 -86.77525 7019 ft 162 kts
2026-04-29 00:23 34.64715 -86.77373 7018 ft 162 kts
2026-04-29 00:23 34.65836 -86.77221 7019 ft 162 kts
2026-04-29 00:24 34.66957 -86.77068 7021 ft 162 kts
2026-04-29 00:24 34.68077 -86.76916 7022 ft 162 kts
2026-04-29 00:24 34.68811 -86.77504 6646 ft 133 kts 247°
2026-04-29 00:24 34.68070 -86.77714 6227 ft 142 kts 145°
2026-04-29 00:25 34.67964 -86.76427 5135 ft 194 kts 58°
2026-04-29 00:25 34.68841 -86.75161 4374 ft 191 kts 64°
2026-04-29 00:25 34.69324 -86.73685 3670 ft 186 kts 78°
2026-04-29 00:25 34.69733 -86.72192 3031 ft 188 kts 78°
2026-04-29 00:26 34.70141 -86.70659 2556 ft 189 kts 78°
2026-04-29 00:26 34.70503 -86.69173 2173 ft 176 kts 88°
2026-04-29 00:26 34.70611 -86.67822 1817 ft 150 kts 91°
2026-04-29 00:26 34.70756 -86.66558 1410 ft 156 kts 85°
2026-04-29 00:27 34.70871 -86.65707 1171 ft 152 kts 79°
2026-04-29 00:27 34.71044 -86.64572 1303 ft 126 kts 154°
2026-04-29 00:27 34.70695 -86.65150 1332 ft 137 kts 281°
2026-04-29 00:27 34.70975 -86.66261 1262 ft 129 kts 269°
2026-04-29 00:28 34.70774 -86.67279 1155 ft 125 kts 244°
2026-04-29 00:28 34.70449 -86.68208 1140 ft 113 kts 245°
2026-04-29 00:28 34.70006 -86.68860 1001 ft 99 kts 202°
2026-04-29 00:28 34.69269 -86.68786 804 ft 110 kts 174°
2026-04-29 00:29 34.68560 -86.68633 687 ft 88 kts 171°